This is the latest recevied weather packets stored in our database for station/object KE8AFF-13. If no packets are shown the sender has not sent any weather packets the latest 10 day(s).
| Time | Temp. | Humidity | Pressure | Rain* | Wind** | Luminosity | Snow |
|---|---|---|---|---|---|---|---|
| 1778100403 | 12.22° C | 56% | 1012.3 hPa | 0 mm | - | 135 W/m² | - |
| 1778100099 | 11.67° C | 55% | 1012.1 hPa | 0 mm | - | 155 W/m² | - |
| 1778099798 | 11.67° C | 56% | 1012.2 hPa | 0 mm | - | 146 W/m² | - |
| 1778099494 | 12.22° C | 55% | 1012.3 hPa | 0 mm | - | 140 W/m² | - |
| 1778099192 | 12.22° C | 53% | 1012.3 hPa | 0 mm | - | 160 W/m² | - |
| 1778098888 | 12.22° C | 55% | 1012.2 hPa | 0 mm | - | 188 W/m² | - |
| 1778098585 | 12.22° C | 55% | 1012.1 hPa | 0 mm | - | 214 W/m² | - |
| 1778098282 | 12.22° C | 55% | 1012.6 hPa | 0 mm | - | 223 W/m² | - |
| 1778097978 | 12.22° C | 54% | 1012.4 hPa | 0 mm | - | 196 W/m² | - |
| 1778097675 | 12.78° C | 56% | 1012.6 hPa | 0 mm | - | 176 W/m² | - |
| 1778097372 | 12.22° C | 54% | 1012.4 hPa | 0 mm | - | 170 W/m² | - |
| 1778097068 | 12.22° C | 56% | 1012.3 hPa | 0 mm | - | 151 W/m² | - |
| 1778096765 | 12.22° C | 55% | 1012.3 hPa | 0 mm | - | 193 W/m² | - |
| 1778096462 | 12.22° C | 56% | 1012.4 hPa | 0 mm | - | 214 W/m² | - |
| 1778096159 | 12.22° C | 54% | 1012.3 hPa | 0 mm | - | 174 W/m² | - |
| 1778095856 | 12.78° C | 54% | 1012.1 hPa | 0 mm | - | 179 W/m² | - |
| 1778095553 | 12.78° C | 55% | 1012.1 hPa | 0 mm | - | 205 W/m² | - |
| 1778095249 | 12.22° C | 55% | 1012.2 hPa | 0 mm | - | 160 W/m² | - |
| 1778094946 | 12.78° C | 54% | 1012.3 hPa | 0 mm | - | 138 W/m² | - |
| 1778094642 | 12.78° C | 53% | 1012.3 hPa | 0 mm | - | 207 W/m² | - |
| 1778094339 | 12.78° C | 53% | 1012.2 hPa | 0 mm | - | 193 W/m² | - |
| 1778094036 | 12.78° C | 55% | 1012 hPa | 0 mm | - | 283 W/m² | - |
| 1778093733 | 12.78° C | 55% | 1012.1 hPa | 0 mm | - | 222 W/m² | - |
| 1778093429 | 12.78° C | 58% | 1011.9 hPa | 0 mm | - | 224 W/m² | - |
| 1778093127 | 12.78° C | 58% | 1012.1 hPa | 0 mm | - | 229 W/m² | - |
* Rain latest hour (hover to see other rain measurements)
** Current wind speed in m/s (hover to see current wind gust speed)